Tracking 28792 objects as of 25-Apr-2024
HD Live streaming from Space Station
objects crossing your sky now

FREGAT R/B

Track FREGAT R/B now!


NORAD ID: 40130
Int'l Code: 2014-050C
Perigee: 13,317.6 km
Apogee: 26,286.7 km
Inclination: 49.0 °
Period: 702.3 minutes
Semi major axis: 26173 km
RCS: Unknown
Launch date: August 22, 2014
Source: Commonwealth of Independent States (former USSR) (CIS)
Launch site: FRENCH GUIANA (FRGUI)

Note: This is a ROCKET BODY
Your satellite tracking list
Your tracking list is empty




NASA's NSSDC Master Catalog

Two Line Element Set (TLE):
1 40130U 14050C   24115.23547940 -.00000023  00000-0  00000-0 0  9991
2 40130  48.9828 258.9985 2477573 189.4053 164.9579  2.05030854 72445
Source of the keplerian elements: AFSPC